Stündliche Wetter Barra de Maldonado

Heute, 31 Oktober, Samstag

Zeit Temperatur Niederschläge Wind Luftdruck Luftfeuchtigkeit
00:00 +7°C° 0 mm 1 m/S 767 mmHg 85%
01:00 +7°C° 0 mm 1 m/S 767 mmHg 87%
02:00 +7°C° 0 mm 1 m/S 767 mmHg 88%
03:00 +7°C° 0 mm 1 m/S 767 mmHg 89%
04:00 +7°C° 0 mm 1 m/S 767 mmHg 89%
05:00 +7°C° 0 mm 1 m/S 767 mmHg 90%
06:00 +10°C° 0 mm 1 m/S 767 mmHg 81%
07:00 +13°C° 0 mm 1 m/S 768 mmHg 72%
08:00 +16°C° 0 mm 1 m/S 768 mmHg 63%
09:00 +17°C° 0 mm 2 m/S 768 mmHg 58%
10:00 +18°C° 0 mm 2 m/S 768 mmHg 52%
11:00 +19°C° 0 mm 2 m/S 768 mmHg 47%
12:00 +19°C° 0 mm 3 m/S 767 mmHg 49%
13:00 +19°C° 0 mm 3 m/S 767 mmHg 52%
14:00 +18°C° 0 mm 3 m/S 767 mmHg 54%
15:00 +17°C° 0 mm 3 m/S 767 mmHg 59%
16:00 +16°C° 0 mm 3 m/S 766 mmHg 63%
17:00 +15°C° 0 mm 2 m/S 766 mmHg 68%
18:00 +13°C° 0 mm 2 m/S 766 mmHg 73%
19:00 +12°C° 0 mm 1 m/S 766 mmHg 78%
20:00 +10°C° 0 mm 1 m/S 766 mmHg 83%
21:00 +9°C° 0 mm 1 m/S 766 mmHg 82%
22:00 +9°C° 0 mm 1 m/S 766 mmHg 82%
23:00 +8°C° 0 mm 2 m/S 766 mmHg 81%

Morgen, 1 November, Sonntag

Zeit Temperatur Niederschläge Wind Luftdruck Luftfeuchtigkeit
00:00 +8°C° 0 mm 2 m/S 766 mmHg 77%
01:00 +7°C° 0 mm 2 m/S 765 mmHg 73%
02:00 +7°C° 0 mm 2 m/S 765 mmHg 70%
03:00 +7°C° 0 mm 2 m/S 765 mmHg 66%
04:00 +7°C° 0 mm 2 m/S 765 mmHg 62%
05:00 +7°C° 0 mm 2 m/S 765 mmHg 58%
06:00 +10°C° 0 mm 2 m/S 765 mmHg 54%
07:00 +13°C° 0 mm 3 m/S 766 mmHg 51%
08:00 +17°C° 0 mm 3 m/S 766 mmHg 47%
09:00 +18°C° 0 mm 3 m/S 766 mmHg 47%
10:00 +19°C° 0 mm 4 m/S 765 mmHg 47%
11:00 +20°C° 0 mm 4 m/S 765 mmHg 47%
12:00 +20°C° 0 mm 4 m/S 765 mmHg 50%
13:00 +20°C° 0 mm 4 m/S 765 mmHg 53%
14:00 +20°C° 0 mm 5 m/S 764 mmHg 57%
15:00 +19°C° 0 mm 4 m/S 764 mmHg 63%
16:00 +18°C° 0 mm 4 m/S 764 mmHg 68%
17:00 +17°C° 0 mm 4 m/S 763 mmHg 74%
18:00 +14°C° 0 mm 3 m/S 763 mmHg 80%
19:00 +12°C° 0 mm 3 m/S 763 mmHg 86%
20:00 +12°C° 0 mm 2 m/S 763 mmHg 92%
21:00 +10°C° 0 mm 2 m/S 763 mmHg 92%
22:00 +10°C° 0 mm 2 m/S 763 mmHg 92%
23:00 +9°C° 0 mm 2 m/S 763 mmHg 92%

übermorgen, 2 November, Montag

Zeit Temperatur Niederschläge Wind Luftdruck Luftfeuchtigkeit
00:00 +10°C° 0 mm 1 m/S 763 mmHg 92%
01:00 +10°C° 0 mm 1 m/S 763 mmHg 91%
02:00 +10°C° 0 mm 1 m/S 762 mmHg 91%
03:00 +10°C° 0 mm 1 m/S 762 mmHg 92%
04:00 +10°C° 0 mm 1 m/S 762 mmHg 92%
05:00 +10°C° 0 mm 1 m/S 763 mmHg 92%
06:00 +13°C° 0 mm 1 m/S 763 mmHg 86%
07:00 +15°C° 0 mm 1 m/S 763 mmHg 80%
08:00 +18°C° 0 mm 2 m/S 764 mmHg 74%
09:00 +18°C° 0 mm 3 m/S 764 mmHg 72%
10:00 +19°C° 0 mm 4 m/S 763 mmHg 70%
11:00 +19°C° 0 mm 4 m/S 763 mmHg 68%
12:00 +20°C° 0 mm 5 m/S 763 mmHg 67%
13:00 +20°C° 0 mm 5 m/S 763 mmHg 65%
14:00 +20°C° 0 mm 5 m/S 763 mmHg 64%
15:00 +20°C° 0 mm 6 m/S 762 mmHg 68%
16:00 +19°C° 0 mm 6 m/S 762 mmHg 73%
17:00 +17°C° 0 mm 6 m/S 762 mmHg 78%
18:00 +16°C° 0 mm 6 m/S 762 mmHg 83%
19:00 +14°C° 0 mm 6 m/S 762 mmHg 89%
20:00 +13°C° 0 mm 5 m/S 762 mmHg 94%
21:00 +12°C° 0 mm 5 m/S 763 mmHg 94%
22:00 +12°C° 0 mm 5 m/S 763 mmHg 95%
23:00 +11°C° 0 mm 4 m/S 763 mmHg 95%

3 November, Dienstag

Zeit Temperatur Niederschläge Wind Luftdruck Luftfeuchtigkeit
00:00 +11°C° 0 mm 4 m/S 763 mmHg 95%
01:00 +11°C° 0 mm 4 m/S 763 mmHg 95%
02:00 +11°C° 0 mm 4 m/S 762 mmHg 95%
03:00 +11°C° 0 mm 4 m/S 763 mmHg 94%
04:00 +11°C° 0 mm 4 m/S 763 mmHg 94%
05:00 +11°C° 0 mm 4 m/S 763 mmHg 94%
06:00 +13°C° 0 mm 4 m/S 763 mmHg 87%
07:00 +15°C° 0 mm 4 m/S 764 mmHg 79%
08:00 +19°C° 0 mm 5 m/S 764 mmHg 72%
09:00 +20°C° 0 mm 5 m/S 764 mmHg 68%
10:00 +21°C° 0 mm 5 m/S 764 mmHg 64%
11:00 +22°C° 0 mm 5 m/S 764 mmHg 59%
12:00 +22°C° 0 mm 6 m/S 763 mmHg 58%
13:00 +23°C° 0 mm 6 m/S 763 mmHg 57%
14:00 +23°C° 0 mm 7 m/S 762 mmHg 56%
15:00 +22°C° 0 mm 7 m/S 762 mmHg 62%
16:00 +21°C° 0 mm 7 m/S 762 mmHg 68%
17:00 +18°C° 0 mm 8 m/S 761 mmHg 74%
18:00 +17°C° 0 mm 7 m/S 762 mmHg 78%
19:00 +15°C° 0 mm 7 m/S 762 mmHg 82%
20:00 +12°C° 0 mm 7 m/S 762 mmHg 86%
21:00 +11°C° 0 mm 6 m/S 762 mmHg 88%
22:00 +11°C° 0 mm 6 m/S 762 mmHg 89%
23:00 +10°C° 0 mm 6 m/S 762 mmHg 91%

4 November, Mittwoch

Zeit Temperatur Niederschläge Wind Luftdruck Luftfeuchtigkeit
00:00 +10°C° 0 mm 6 m/S 762 mmHg 91%
01:00 +10°C° 0 mm 6 m/S 761 mmHg 92%
02:00 +10°C° 0 mm 6 m/S 761 mmHg 93%
03:00 +10°C° 0 mm 6 m/S 761 mmHg 93%
04:00 +10°C° 0 mm 6 m/S 761 mmHg 93%
05:00 +10°C° 0 mm 5 m/S 761 mmHg 94%
06:00 +13°C° 0 mm 6 m/S 761 mmHg 86%
07:00 +16°C° 0 mm 6 m/S 761 mmHg 79%
08:00 +19°C° 0 mm 6 m/S 761 mmHg 72%
09:00 +20°C° 0 mm 6 m/S 761 mmHg 68%
10:00 +22°C° 0 mm 6 m/S 761 mmHg 64%
11:00 +23°C° 0 mm 5 m/S 760 mmHg 59%
12:00 +24°C° 0 mm 6 m/S 760 mmHg 59%
13:00 +24°C° 0 mm 6 m/S 759 mmHg 58%
14:00 +26°C° 0 mm 6 m/S 758 mmHg 57%
15:00 +24°C° 0 mm 6 m/S 758 mmHg 61%
16:00 +23°C° 0 mm 6 m/S 757 mmHg 66%
17:00 +22°C° 0 mm 6 m/S 757 mmHg 71%
18:00 +20°C° 0 mm 6 m/S 757 mmHg 76%
19:00 +19°C° 0 mm 6 m/S 757 mmHg 81%
20:00 +16°C° 0 mm 6 m/S 757 mmHg 86%
21:00 +16°C° 0 mm 6 m/S 757 mmHg 88%
22:00 +15°C° 0 mm 6 m/S 757 mmHg 91%
23:00 +15°C° 0 mm 6 m/S 756 mmHg 93%

5 November, Donnerstag

Zeit Temperatur Niederschläge Wind Luftdruck Luftfeuchtigkeit
00:00 +15°C° 0 mm 6 m/S 756 mmHg 92%
01:00 +15°C° 0 mm 7 m/S 755 mmHg 92%
02:00 +15°C° 0 mm 7 m/S 755 mmHg 91%
03:00 +15°C° 0 mm 7 m/S 754 mmHg 90%
04:00 +16°C° 0 mm 7 m/S 754 mmHg 88%
05:00 +16°C° 0 mm 7 m/S 754 mmHg 87%
06:00 +16°C° 0.6 mm 6 m/S 754 mmHg 87%
07:00 +17°C° 0.6 mm 6 m/S 754 mmHg 87%
08:00 +19°C° 0.6 mm 6 m/S 754 mmHg 87%
09:00 +19°C° 2 mm 6 m/S 754 mmHg 87%
10:00 +20°C° 2 mm 7 m/S 754 mmHg 88%
11:00 +20°C° 2 mm 7 m/S 754 mmHg 88%
12:00 +21°C° 0.1 mm 7 m/S 754 mmHg 79%
13:00 +21°C° 0.1 mm 8 m/S 754 mmHg 71%
14:00 +22°C° 0.1 mm 8 m/S 754 mmHg 62%
15:00 +21°C° 0 mm 7 m/S 754 mmHg 61%
16:00 +18°C° 0 mm 7 m/S 754 mmHg 60%
17:00 +17°C° 0 mm 7 m/S 754 mmHg 58%
18:00 +17°C° 0 mm 7 m/S 755 mmHg 59%
19:00 +16°C° 0 mm 8 m/S 755 mmHg 60%
20:00 +16°C° 0 mm 8 m/S 756 mmHg 60%
21:00 +15°C° 0 mm 9 m/S 756 mmHg 63%
22:00 +13°C° 0 mm 9 m/S 756 mmHg 66%
23:00 +12°C° 0 mm 10 m/S 757 mmHg 68%
Mehr zeigen